Auckland, New Zealand

11:59 AM NZDT on December 13, 2017 (GMT +1300)
Auckland International

Weather History for NZAA - November, 2012

Change the Weather History Date:

Saturday, November 3, 2012

  Actual Average Record
Temperature  
Mean Temperature 60 °F -  
Max Temperature 64 °F 63 °F 69 °F (1999)
Min Temperature 55 °F 53 °F 48 °F (1996)
Degree Days  
Heating Degree Days 6    
Growing Degree Days 10 (Base 50)    
Moisture  
Dew Point 53 °F    
Average Humidity 78    
Maximum Humidity 94    
Minimum Humidity 63    
Precipitation  
Precipitation 0.00 in - - ()
Sea Level Pressure  
Sea Level Pressure 29.74 in    
Wind  
Wind Speed 10 mph ()    
Max Wind Speed 24 mph    
Max Gust Speed -    
Visibility 6.2 miles    
Events Rain    
Averages and records for this station are not official NWS values.
T = Trace of Precipitation, MM = Missing Value Source: Averaged Metar Reports

Daily Weather History Graph

Daily Weather History Graph

Search for Another Location

Airport or City:

Trip Planner

Search our weather history database for the weather conditions in past years. The results will help you decide how hot, cold, wet, or windy it might be!

Date:

Astronomy

Nov. 03, 2012 Rise Set
Actual Time 6:13 AM NZDT 7:56 PM NZDT
Civil Twilight 5:45 AM NZDT 8:24 PM NZDT
Nautical Twilight 5:11 AM NZDT 8:57 PM NZDT
Astronomical Twilight 4:36 AM NZDT 9:33 PM NZDT
Moon 11:40 PM NZDT (11/3) 8:59 AM NZDT (11/3)
Length of Visible Light 14h 38m
Length of Day
13h 42m
Waning Gibbous, 85% of the Moon is Illuminated
Nov 3
Waning Gibbous
Nov 7
Last Quarter
Nov 14
New
Nov 21
First Quarter
Nov 29
Full

Hourly Weather History & Observations

Time (NZDT) Temp. Dew Point Humidity Pressure Visibility Wind Dir Wind Speed Gust Speed Precip Events Conditions
12:00 AM 59.0 °F 51.8 °F 77% 29.80 in - NNW 6.9 mph - N/A   Clear
1:00 AM 59.0 °F 53.6 °F 82% 29.80 in - North 4.6 mph - N/A   Clear
2:00 AM 57.2 °F 53.6 °F 88% 29.77 in - North 3.5 mph - N/A   Clear
3:00 AM 57.2 °F 53.6 °F 88% 29.77 in 6.2 mi NNE 4.6 mph - N/A   Mostly Cloudy
4:00 AM 59.0 °F 51.8 °F 77% 29.74 in 6.2 mi North 8.1 mph - N/A   Mostly Cloudy
5:00 AM 59.0 °F 50.0 °F 72% 29.74 in 6.2 mi North 8.1 mph - N/A   Mostly Cloudy
6:00 AM 59.0 °F 48.2 °F 67% 29.74 in 6.2 mi North 6.9 mph - N/A   Mostly Cloudy
7:00 AM 59.0 °F 50.0 °F 72% 29.74 in 6.2 mi North 8.1 mph - N/A   Mostly Cloudy
8:00 AM 60.8 °F 51.8 °F 72% 29.71 in 6.2 mi North 10.4 mph - N/A   Partly Cloudy
9:00 AM 62.6 °F 53.6 °F 72% 29.71 in 6.2 mi North 16.1 mph - N/A   Partly Cloudy
10:00 AM 64.4 °F 55.4 °F 73% 29.71 in 6.2 mi North 16.1 mph - N/A   Scattered Clouds
11:00 AM 64.4 °F 55.4 °F 73% 29.68 in 6.2 mi NNE 19.6 mph - N/A   Mostly Cloudy
12:00 PM 62.6 °F 57.2 °F 82% 29.68 in 6.2 mi North 18.4 mph - N/A Rain Rain Showers
1:00 PM 62.6 °F 60.8 °F 94% 29.68 in 6.2 mi NNE 13.8 mph - N/A Rain Rain Showers
2:00 PM 62.6 °F 59.0 °F 88% 29.68 in 6.2 mi WNW 17.3 mph - N/A   Mostly Cloudy
3:00 PM 62.6 °F 59.0 °F 88% 29.68 in 6.2 mi West 18.4 mph - N/A   Mostly Cloudy
4:00 PM 62.6 °F 55.4 °F 77% 29.68 in 6.2 mi WSW 17.3 mph - N/A   Mostly Cloudy
5:00 PM 60.8 °F 57.2 °F 88% 29.68 in 6.2 mi SW 16.1 mph - N/A Rain Light Rain Showers
6:00 PM 59.0 °F 55.4 °F 88% 29.71 in 6.2 mi SW 24.2 mph - N/A   Mostly Cloudy
7:00 PM 57.2 °F 51.8 °F 82% 29.74 in 6.2 mi SW 23.0 mph - N/A   Mostly Cloudy
8:00 PM 57.2 °F 50.0 °F 77% 29.77 in 6.2 mi SSW 21.9 mph - N/A   Mostly Cloudy
9:00 PM 57.2 °F 48.2 °F 72% 29.80 in 6.2 mi SW 21.9 mph - N/A   Mostly Cloudy
10:00 PM 55.4 °F 44.6 °F 67% 29.83 in 6.2 mi SW 23.0 mph - N/A   Mostly Cloudy
11:00 PM 55.4 °F 42.8 °F 63% 29.83 in 6.2 mi SW 18.4 mph - N/A   Mostly Cloudy